CW8014 Weather Reports


time (UTC)temp
C
wind
direction
speed
KPH
gust
KPH
rain 1hr
cm
rain 24hr
cm
rain mn
cm
humidity
%
barometer
mb
20260831070404 17 178 8.0 19.3 0.00 0.30 0.03 88 1008.3
20260831065404 17 197 4.8 19.3 0.00 0.30 0.03 89 1008.2
20260831064404 17 222 6.4 16.1 0.00 0.30 0.03 90 1008.2
20260831063404 17 187 6.4 16.1 0.00 0.30 0.03 91 1008.1
20260831062404 17 140 6.4 12.9 0.00 0.30 0.03 92 1008.1
20260831055404 16 188 6.4 14.5 0.00 0.33 0.03 93 1008.0
20260831053404 16 155 4.8 12.9 0.00 0.33 0.03 93 1008.1
20260831052404 16 213 3.2 11.3 0.00 0.33 0.03 93 1008.0
20260831051405 16 171 4.8 9.7 0.00 0.33 0.03 94 1008.0
20260831045404 16 168 4.8 9.7 0.03 0.33 0.03 94 1008.0
20260831043404 16 146 4.8 9.7 0.03 0.33 0.03 93 1008.1
20260831042409 16 163 4.8 11.3 0.03 0.33 0.03 93 1008.0
20260831034409 16 148 4.8 11.3 0.00 0.33 0.00 94 1008.1
20260831033409 16 169 4.8 8.0 0.00 0.33 0.00 94 1008.2
20260831032409 16 170 4.8 11.3 0.00 0.33 0.00 94 1008.1
20260831030409 16 173 6.4 14.5 0.00 0.33 0.00 94 1008.2
20260831025409 16 155 6.4 16.1 0.00 0.33 0.00 94 1008.2
20260831024409 15 161 6.4 11.3 0.00 0.33 0.00 95 1008.4
20260831023409 15 171 6.4 11.3 0.00 0.33 0.00 95 1008.5
20260831022409 15 165 4.8 9.7 0.00 0.33 0.00 95 1008.4
20260831021410 15 168 4.8 11.3 0.00 0.33 0.00 95 1008.3
20260831020409 15 167 4.8 9.7 0.00 0.33 0.00 95 1008.6
20260831015409 16 162 6.4 14.5 0.00 0.36 0.00 95 1008.6
20260831014409 16 173 4.8 11.3 0.00 0.36 0.00 95 1008.7
20260831013409 16 152 4.8 12.9 0.00 0.36 0.00 96 1008.8
20260831012409 16 150 4.8 9.7 0.00 0.36 0.00 96 1009.0
20260831010409 16 159 6.4 11.3 0.00 0.36 0.00 96 1009.3
20260831005409 16 165 6.4 11.3 0.00 0.36 0.00 96 1009.3
20260831004410 16 161 4.8 12.9 0.00 0.36 0.00 97 1009.3
20260831003409 16 144 4.8 8.0 0.00 0.36 0.00 97 1009.4
20260831002410 16 146 3.2 6.4 0.00 0.36 0.00 97 1009.3
20260831001411 16 156 3.2 8.0 0.00 0.36 0.00 97 1009.5
20260831000410 16 144 4.8 9.7 0.00 0.36 0.00 96 1009.5
20260830235409 15 161 3.2 8.0 0.00 0.36 0.00 96 1009.6
20260830234409 16 151 3.2 4.8 0.00 0.36 0.00 97 1009.6
20260830232409 16 161 3.2 8.0 0.00 0.36 0.00 97 1010.0
20260830231410 16 159 3.2 8.0 0.00 0.36 0.00 97 1010.1
20260830230409 16 174 3.2 6.4 0.00 0.36 0.00 97 1010.2
20260830225409 16 144 4.8 8.0 0.00 0.38 0.00 97 1010.3
20260830224410 16 149 3.2 6.4 0.00 0.38 0.00 97 1010.5
20260830223409 16 145 3.2 4.8 0.00 0.38 0.00 97 1010.6
20260830222409 16 153 1.6 4.8 0.00 0.38 0.00 97 1010.8
20260830221410 16 155 3.2 4.8 0.00 0.38 0.00 97 1010.8
20260830220410 16 148 3.2 6.4 0.00 0.38 0.00 97 1010.8
20260830215410 16 151 3.2 4.8 0.00 0.43 0.43 97 1010.9
20260830214409 16 152 3.2 4.8 0.00 0.43 0.43 97 1010.8
20260830213410 16 155 3.2 6.4 0.00 0.43 0.43 96 1010.9
20260830212410 16 161 1.6 6.4 0.00 0.43 0.43 96 1011.0
20260830211410 16 161 1.6 6.4 0.00 0.43 0.43 96 1011.0
20260830210410 16 162 3.2 6.4 0.00 0.43 0.43 96 1011.0
20260830204409 16 160 1.6 6.4 0.00 0.46 0.43 96 1011.1
20260830203410 16 159 3.2 6.4 0.00 0.46 0.43 96 1011.2
20260830202410 16 161 3.2 6.4 0.00 0.46 0.43 96 1011.2
20260830201410 16 179 0.0 3.2 0.00 0.46 0.43 96 1011.3
20260830200409 16 179 0.0 1.6 0.00 0.46 0.43 96 1011.4
20260830195410 17 179 1.6 3.2 0.00 0.46 0.43 96 1011.5
20260830194409 17 179 1.6 3.2 0.00 0.46 0.43 95 1011.5
20260830193411 17 179 3.2 4.8 0.00 0.46 0.43 95 1011.5
20260830191410 17 186 1.6 3.2 0.00 0.46 0.43 95 1011.6
20260830190410 17 188 1.6 3.2 0.00 0.46 0.43 95 1011.6
20260830185410 17 198 1.6 4.8 0.00 0.46 0.43 95 1011.6
20260830184410 17 204 1.6 4.8 0.00 0.46 0.43 94 1011.5
20260830182410 17 223 1.6 8.0 0.00 0.46 0.43 94 1011.5
20260830181410 17 239 3.2 9.7 0.00 0.46 0.43 94 1011.5
20260830175410 17 217 3.2 8.0 0.05 0.46 0.43 94 1011.3
20260830174410 17 221 3.2 8.0 0.05 0.46 0.43 94 1011.2
20260830173410 17 222 4.8 14.5 0.05 0.46 0.43 93 1011.2
20260830172410 18 194 4.8 11.3 0.05 0.46 0.43 93 1011.2
20260830170410 19 265 3.2 9.7 0.05 0.43 0.43 90 1011.2
20260830124407 20 165 4.8 17.7 0.03 0.48 0.38 92 1009.8
20260830123407 20 164 8.0 17.7 0.10 0.48 0.38 93 1009.7
20260830122407 19 171 4.8 16.1 0.20 0.48 0.38 94 1009.7
20260830121407 19 175 6.4 14.5 0.20 0.48 0.38 94 1009.5
20260830120407 19 180 3.2 11.3 0.20 0.48 0.38 94 1009.5
20260830113406 19 209 4.8 14.5 0.10 0.38 0.28 89 1009.4
20260830112407 20 250 4.8 17.7 0.00 0.28 0.18 87 1009.2
20260830111407 21 202 8.0 19.3 0.00 0.28 0.18 85 1009.0
20260830110405 21 208 11.3 22.5 0.00 0.28 0.18 84 1008.8
20260830105405 20 175 11.3 22.5 0.00 0.28 0.18 85 1008.7
20260830103404 20 215 8.0 22.5 0.00 0.28 0.18 86 1008.6
20260830102404 20 182 8.0 17.7 0.00 0.28 0.18 86 1008.6
20260830101405 20 150 12.9 24.1 0.00 0.28 0.18 87 1008.5
20260830100406 20 136 6.4 19.3 0.00 0.28 0.18 87 1008.4
20260830095405 20 202 11.3 30.6 0.00 0.28 0.18 87 1008.3
20260830094404 20 214 9.7 29.0 0.00 0.28 0.18 89 1008.2
20260830093404 20 181 9.7 22.5 0.00 0.28 0.18 90 1008.1
20260830092404 19 306 4.8 12.9 0.00 0.28 0.18 91 1008.0
20260830091404 18 182 8.0 22.5 0.00 0.28 0.18 91 1007.9
20260830090404 18 130 9.7 22.5 0.03 0.28 0.18 92 1007.8
20260830085404 18 174 8.0 19.3 0.03 0.28 0.18 93 1007.6
20260830084404 18 194 9.7 22.5 0.03 0.28 0.18 94 1007.3
20260830083405 18 196 8.0 17.7 0.03 0.28 0.18 95 1007.3
20260830082406 18 173 6.4 16.1 0.03 0.28 0.18 95 1007.3
20260830081404 17 128 6.4 19.3 0.03 0.28 0.18 94 1007.1
20260830075405 17 244 6.4 16.1 0.00 0.25 0.15 94 1006.8
20260830074405 17 152 8.0 19.3 0.00 0.25 0.15 94 1006.7
20260830073404 17 122 8.0 20.9 0.03 0.25 0.15 94 1006.5
20260830072404 17 195 6.4 22.5 0.03 0.25 0.15 94 1006.3
20260830071404 17 242 8.0 29.0 0.03 0.25 0.15 94 1006.2